Terminal Aerodrome Forecast
Issued by NWS Bismarck, ND

Home | Current Version | Previous Version | Graphics & Text | Print | Product List | Glossary On
Versions: 1 2 3 4 5 6 7 8 9 10 11 12 13 14 15
000
FTUS43 KBIS 130500
TAFBIS
TAF
KBIS 130520Z 1306/1406 21007KT P6SM SCT150
     FM132100 30012G19KT P6SM BKN060
     FM140100 32009KT P6SM BKN050=

USA.gov is the U.S. government's official web portal to all federal, state and local government web resources and services.